Tracking 35274 objects as of 10-Sep-2026
HD Live streaming from Space Station
objects crossing your sky now

LEMUR-2 GRAM-E-SUE

Track LEMUR-2 GRAM-E-SUE now!
10-day predictions
LEMUR-2 GRAM-E-SUE is classified as:


NORAD ID: 67370
Int'l Code: 2026-004H
Launch date: January 11, 2026
Source: United States (US)
Launch site: AIR FORCE WESTERN TEST RANGE (AFWTR)

Uplink (MHz):
Downlink (MHz): 401.100
Beacon (MHz):
Mode: BPSK
Call sign:
Status: Unknown

Your satellite tracking list
Your tracking list is empty




NASA's NSSDC Master Catalog

Two Line Element Set (TLE):
1 67370U 26004H   26252.92716497  .00003373  00000-0  36548-3 0  9992
2 67370  97.8030 250.1945 0005876 215.1519 144.9311 14.88867763 35906
Source of the keplerian elements: AFSPC